"Time","Temp","Dewpoint","Humidity","Pressure","Direction","Speed","Gust","Precip","PrecipRate"
"00:04:57","56.7","47","70","29.94","35","0.7","2.3","0.00","0.00"
"00:09:57","56.5","46.8","70","29.94","17","1.3","5","0.00","0.00"
"00:14:56","56.3","46.8","70.6","29.95","356","2","7","0.00","0.00"
"00:19:58","56.2","46.9","71","29.95","355","0.8","5.8","0.00","0.00"
"00:24:57","56.1","46.8","71","29.95","347","0.6","3.5","0.00","0.00"
"00:29:56","56","46.7","71","29.95","327","1.2","4","0.00","0.00"
"00:34:58","56","46.7","71","29.95","330","1.4","7","0.00","0.00"
"00:39:58","56","46.6","70.8","29.95","3","1.8","6.9","0.00","0.00"
"00:44:56","56","46.7","71","29.95","344","1.8","6","0.00","0.00"
"00:49:59","56","46.4","70.1","29.95","341","2.6","5.8","0.00","0.00"
"00:54:57","56","46.4","70","29.95","354","1.3","4","0.00","0.00"
"00:59:56","56","46.2","69.6","29.95","36","1.3","5.8","0.00","0.00"
"01:04:58","56.1","46.2","69.3","29.95","37","0.9","5","0.00","0.00"
"01:09:56","56","46","69","29.95","44","0.6","3.5","0.00","0.00"
"01:14:56","56","46.1","69.1","29.95","44","0.5","3","0.00","0.00"
"01:19:58","56","45.8","68.5","29.95","47","1.2","3.5","0.00","0.00"
"01:24:57","56","45.6","68","29.95","3","1.1","4","0.00","0.00"
"01:29:59","56","45.6","68","29.96","291","0.6","3.5","0.00","0.00"
"01:34:58","55.9","45.8","68.5","29.96","345","1.2","5","0.00","0.00"
"01:39:58","55.9","45.5","68","29.96","342","1.6","5","0.00","0.00"
"01:44:57","55.8","45.1","67.3","29.96","338","2.4","9.2","0.00","0.00"
"01:49:59","55.8","45","67","29.95","0","2.6","7","0.00","0.00"
"01:54:58","55.8","44.7","66.3","29.95","344","4.7","13","0.00","0.00"
"01:59:57","56","44.3","64.8","29.95","324","4.6","11.5","0.00","0.00"
"02:04:58","56","44.2","64.4","29.95","326","4.2","10.4","0.00","0.00"
"02:09:56","56.1","44.1","64","29.95","345","4.3","10.4","0.00","0.00"
"02:14:59","56","44.3","64.7","29.96","340","3.9","9.2","0.00","0.00"
"02:19:57","55.9","44.4","65.2","29.96","319","2.9","6","0.00","0.00"
"02:24:56","55.8","44.2","65","29.96","346","3.5","7","0.00","0.00"
"02:29:59","55.6","44.3","65.5","29.96","326","2.3","5","0.00","0.00"
"02:34:57","55.5","43.9","65","29.96","351","2","7","0.00","0.00"
"02:39:57","55.5","43.9","65","29.96","342","1.9","6","0.00","0.00"
"02:44:59","55.4","43.8","65","29.96","329","1.4","5","0.00","0.00"
"02:49:58","55.3","43.7","65","29.96","350","1.9","5","0.00","0.00"
"02:54:57","55.2","43.6","64.9","29.96","347","2.5","7","0.00","0.00"
"02:59:59","55.2","43.5","64.8","29.96","346","2.3","6.9","0.00","0.00"
"03:04:58","55","43.7","65.6","29.96","335","2.8","7","0.00","0.00"
"03:09:56","54.7","43.6","66","29.96","13","3.9","11.5","0.00","0.00"
"03:14:59","54.3","43.1","65.6","29.98","345","5.6","18.4","0.00","0.00"
"03:19:58","53.9","42.4","64.8","29.98","342","4.6","11.5","0.00","0.00"
"03:24:56","53.6","41.9","64.5","29.98","344","4.4","15","0.00","0.00"
"03:29:59","53.4","41.5","64","29.98","342","4.3","15","0.00","0.00"
"03:34:57","53.1","41.3","64.2","29.98","354","5","11.5","0.00","0.00"
"03:39:56","52.8","41","64","29.98","345","4.5","14","0.00","0.00"
"03:44:59","52.5","40.7","64","29.99","341","4.5","11.5","0.00","0.00"
"03:49:58","52.2","40.5","64.2","29.99","349","3.6","11.5","0.00","0.00"
"03:54:57","51.9","40.5","65","29.99","336","4.4","10.4","0.00","0.00"
"03:59:59","51.7","40.3","65","30.00","337","4.4","14","0.00","0.00"
"04:04:57","51.5","40.4","65.8","30.00","334","5.1","14","0.00","0.00"
"04:09:58","51.2","40.4","66.3","30.00","327","5.5","12","0.00","0.00"
"04:14:57","51","40.4","67","30.01","342","6.8","15","0.00","0.00"
"04:19:56","50.8","39.5","65.1","30.01","337","7.3","20","0.00","0.00"
"04:24:58","50.6","38.1","62.2","30.01","339","5.5","12.7","0.00","0.00"
"04:29:57","50.2","36.7","59.8","30.02","340","5.4","12","0.00","0.00"
"04:34:56","49.8","36","59","30.02","358","4.3","11.5","0.00","0.00"
"04:39:59","49.5","35.5","58.4","30.02","354","3.1","10.4","0.00","0.00"
"04:44:57","49.2","35","58","30.04","352","1.9","7","0.00","0.00"
"04:49:56","49","35","58.4","30.04","346","2.9","10.4","0.00","0.00"
"04:54:59","48.8","34.8","58.4","30.04","328","1.9","5","0.00","0.00"
"04:59:57","48.5","34.7","58.8","30.04","222","2.7","11.5","0.00","0.00"
"05:04:58","48.3","34.1","57.8","30.04","315","1.6","11.5","0.00","0.00"
"05:09:56","48.1","33.2","56.4","30.04","295","2.9","10.4","0.00","0.00"
"05:14:59","47.9","32.5","55","30.06","1","2.8","6","0.00","0.00"
"05:19:58","47.6","31.9","54.2","30.06","281","3.4","10.4","0.00","0.00"
"05:24:56","47.4","31.1","53.1","30.06","331","3.8","12","0.00","0.00"
"05:29:59","47.2","30.7","52.6","30.07","318","3.9","11.5","0.00","0.00"
"05:34:58","47","30.5","52.5","30.07","332","4.9","12.7","0.00","0.00"
"05:39:57","46.9","30.5","52.6","30.07","329","4.2","13","0.00","0.00"
"05:44:59","46.7","30.3","52.5","30.08","340","5.4","12.7","0.00","0.00"
"05:49:58","46.7","30.1","52.3","30.08","344","5.4","13","0.00","0.00"
"05:54:56","46.6","30.3","52.7","30.08","339","4.8","12","0.00","0.00"
"05:59:59","46.5","30.2","52.8","30.09","351","4","9.2","0.00","0.00"
"06:04:56","46.2","30","53","30.09","346","2.5","8.1","0.00","0.00"
"06:09:59","46","29.9","53.2","30.09","348","2.9","10.4","0.00","0.00"
"06:14:58","45.9","29.9","53.5","30.10","342","2.3","5","0.00","0.00"
"06:19:57","45.7","30","54","30.10","328","1.6","5","0.00","0.00"
"06:24:56","45.5","29.8","54","30.10","343","2.1","5","0.00","0.00"
"06:29:59","45.2","29.5","54","30.12","350","0.9","3.5","0.00","0.00"
"06:34:58","45","29.4","54.2","30.12","350","0","2.3","0.00","0.00"
"06:39:58","44.9","29.4","54.6","30.12","350","0.2","1.2","0.00","0.00"
"06:44:57","44.6","29.4","55","30.13","350","0.2","1.2","0.00","0.00"
"06:49:59","44.4","29.5","55.7","30.13","350","0.2","2","0.00","0.00"
"06:54:58","44.2","29.6","56.3","30.13","349","0.8","3","0.00","0.00"
"06:59:57","44.1","29.8","57","30.13","348","1","6","0.00","0.00"
"07:04:54","44.1","29.8","57","30.13","348","1","3.5","0.00","0.00"
"07:09:56","44.2","30","57.2","30.13","342","1.4","5","0.00","0.00"
"07:14:59","44.4","30.2","57.1","30.15","343","1.7","6","0.00","0.00"
"07:19:57","44.8","30.5","57","30.15","344","1.7","5","0.00","0.00"
"07:24:59","45.1","30.9","57.3","30.15","340","1.4","5","0.00","0.00"
"07:29:58","45.4","30.7","56","30.15","313","1.5","6","0.00","0.00"
"07:34:56","45.8","30.8","55.5","30.15","331","2.4","5","0.00","0.00"
"07:39:59","46.2","30.9","55","30.15","350","3.6","12","0.00","0.00"
"07:44:57","46.6","31.3","55","30.16","349","3","10.4","0.00","0.00"
"07:49:59","46.9","31.3","54.4","30.16","348","2.3","7","0.00","0.00"
"07:54:57","47.1","31.1","53.7","30.16","338","3.8","11.5","0.00","0.00"
"07:59:56","47.4","31.1","53","30.16","342","4.4","11.5","0.00","0.00"
"08:04:57","47.6","31.3","53","30.16","344","3.7","11.5","0.00","0.00"
"08:09:59","47.8","31.1","52.3","30.16","333","5.4","19","0.00","0.00"
"08:14:58","47.8","31.1","52.1","30.17","335","8.1","19.6","0.00","0.00"
"08:19:56","47.9","30.9","51.7","30.17","342","8.8","18.4","0.00","0.00"
"08:24:58","48","31.4","52.3","30.17","347","7.4","15","0.00","0.00"
"08:29:56","48.1","31.1","51.5","30.18","355","7.3","17.3","0.00","0.00"
"08:34:58","48.2","30.9","51","30.18","343","6.3","16.1","0.00","0.00"
"08:39:57","48.6","31.8","52","30.18","335","3.3","11.5","0.00","0.00"
"08:44:59","49.1","31.8","51.2","30.18","314","3.6","12","0.00","0.00"
"08:49:57","49.1","31.5","50.6","30.18","351","5.7","13","0.00","0.00"
"08:54:59","49.2","31.9","51.2","30.18","345","3.7","9","0.00","0.00"
"08:59:57","49.4","31.9","50.9","30.19","338","4","9.2","0.00","0.00"
"09:04:58","49.5","32.1","51","30.19","315","4.6","12","0.00","0.00"
"09:09:56","49.5","31.8","50.5","30.19","324","5.5","11.5","0.00","0.00"
"09:14:59","49.3","31.9","50.9","30.19","328","5","12","0.00","0.00"
"09:19:57","49.5","32.3","51.4","30.19","328","5.4","15","0.00","0.00"
"09:24:59","49.9","32.6","51.1","30.19","343","5.2","11.5","0.00","0.00"
"09:29:57","50.1","32.6","50.8","30.19","316","4.6","14","0.00","0.00"
"09:34:59","50","32.1","50.1","30.19","338","6.8","13","0.00","0.00"
"09:39:58","50.1","33.9","53.6","30.19","348","4.7","18","0.00","0.00"
"09:44:56","50.3","32.9","51.2","30.19","359","7.6","18.4","0.00","0.00"
"09:49:58","50.5","32.6","50.2","30.19","334","5.9","16.1","0.00","0.00"
"09:54:56","50.7","33.2","51.1","30.19","330","4.5","11.5","0.00","0.00"
"09:59:58","50.8","32.8","50","30.19","342","4.8","10","0.00","0.00"
"10:04:56","51.3","33.2","49.9","30.19","321","5.2","16.1","0.00","0.00"
"10:09:57","51","32.1","48.1","30.19","318","6.8","19.6","0.00","0.00"
"10:14:56","50.4","30.7","46.6","30.20","334","6.1","16.1","0.00","0.00"
"10:19:59","50.9","32","48.2","30.20","3","5","15","0.00","0.00"
"10:24:57","50.9","32","48.1","30.20","349","7.6","14","0.00","0.00"
"10:29:56","51","32.1","48.4","30.20","309","5.8","14","0.00","0.00"
"10:34:58","51","31","46.2","30.20","310","7.4","17.3","0.00","0.00"
"10:39:57","50.9","31.2","46.8","30.20","325","5.8","14","0.00","0.00"
"10:44:59","51.1","31.7","47.3","30.21","303","5.4","13","0.00","0.00"
"10:49:57","51.2","31.4","46.6","30.21","331","7","16.1","0.00","0.00"
"10:54:56","51.5","31.6","46.5","30.21","292","6.5","16","0.00","0.00"
"10:59:58","51.8","30.9","44.6","30.21","328","7.7","16.1","0.00","0.00"
"11:04:59","51.5","31.3","46","30.21","315","5.4","13.8","0.00","0.00"
"11:09:56","52","32.3","47","30.21","354","5.7","17.3","0.00","0.00"
"11:14:59","52.1","32","46.1","30.21","335","7.7","18.4","0.00","0.00"
"11:19:57","51.9","31.2","45","30.21","341","8","18.4","0.00","0.00"
"11:24:59","51.6","31.1","45.3","30.21","314","7.3","18.4","0.00","0.00"
"11:29:57","51.4","31","45.4","30.22","323","6.3","14","0.00","0.00"
"11:34:56","51.7","31.7","46.3","30.22","353","7.8","19.6","0.00","0.00"
"11:39:58","51.8","31.6","45.9","30.22","347","7.3","19.6","0.00","0.00"
"11:44:57","52.2","32","46","30.22","327","6.8","17.3","0.00","0.00"
"11:49:59","52.7","32.2","45.6","30.22","284","7","16.1","0.00","0.00"
"11:54:57","52.6","32.5","46.2","30.22","319","5.6","14","0.00","0.00"
"11:59:59","52.9","31.7","44.3","30.22","333","6.5","14","0.00","0.00"
"12:04:56","52.4","30.7","43.3","30.22","301","5.9","15","0.00","0.00"
"12:09:57","52.4","32.2","46.1","30.22","330","5.4","13","0.00","0.00"
"12:14:56","52.5","30.7","43.3","30.22","320","7.3","15","0.00","0.00"
"12:19:58","52.6","31.9","45.2","30.22","310","6.1","15","0.00","0.00"
"12:24:48","53.2","31.6","43.6","30.22","332","8.4","18","0.00","0.00"
"12:29:58","53.2","32.5","45.2","30.22","331","5.5","15","0.00","0.00"
"12:34:56","53.6","32.4","44.5","30.22","314","6","18.4","0.00","0.00"
"12:39:59","53.3","31.1","42.5","30.22","338","7","14","0.00","0.00"
"12:44:57","53.3","32","44.1","30.22","326","5.6","13","0.00","0.00"
"12:49:59","53.5","32.7","45.2","30.21","358","5.8","16.1","0.00","0.00"
"12:54:57","52.8","31.6","44.4","30.21","343","8.3","16","0.00","0.00"
"12:59:59","53.1","32.8","46","30.21","327","5.5","12.7","0.00","0.00"
"13:04:56","53.4","32.9","45.5","30.21","320","5.4","11.5","0.00","0.00"
"13:09:50","53.6","32.9","45.4","30.21","346","6.2","18.4","0.00","0.00"
"13:14:57","53.3","32","44","30.22","340","5.9","17.3","0.00","0.00"
"13:19:59","52.7","32.1","45.2","30.22","295","4.1","11.5","0.00","0.00"
"13:24:58","52.9","32.8","46.2","30.22","322","5","15","0.00","0.00"
"13:29:56","53","32.6","45.8","30.23","316","5.7","16","0.00","0.00"
"13:34:59","52.8","32.3","45.5","30.23","350","3.7","13.8","0.00","0.00"
"13:39:58","52.8","32.4","45.7","30.23","321","5.8","15","0.00","0.00"
"13:44:56","53","32.8","46.1","30.23","323","5.6","13","0.00","0.00"
"13:49:58","53.1","32.3","45","30.22","152","3.6","9.2","0.00","0.00"
"13:54:56","53.1","32.7","45.6","30.22","317","3.8","11.5","0.00","0.00"
"13:59:58","54","32.8","44.5","30.23","283","4.9","15","0.00","0.00"
"14:04:59","54.3","32.6","43.7","30.23","336","5.3","17","0.00","0.00"
"14:09:56","54.2","31.8","42.3","30.23","15","6.9","19","0.00","0.00"
"14:14:59","53.7","31.5","42.6","30.23","345","8.7","22","0.00","0.00"
"14:19:57","54.1","32.3","43.5","30.23","332","5.4","13.8","0.00","0.00"
"14:24:59","54.7","32.9","43.5","30.23","304","4.4","12","0.00","0.00"
"14:29:57","55.1","33.5","43.9","30.23","358","5.3","16","0.00","0.00"
"14:34:59","54.4","31.2","41","30.23","344","4.5","16.1","0.00","0.00"
"14:39:58","53.7","31.8","43.3","30.23","285","4.7","13","0.00","0.00"
"14:44:56","54.3","32.6","43.6","30.23","324","4.9","14","0.00","0.00"
"14:49:57","54.7","33","43.6","30.22","304","5","13.8","0.00","0.00"
"14:54:56","54.9","33.5","44.3","30.22","335","4.8","14","0.00","0.00"
"14:59:59","55","33.5","44.1","30.22","343","3.7","10.4","0.00","0.00"
"15:04:52","55.2","33.4","43.6","30.22","328","6.7","14","0.00","0.00"
"15:09:57","55.2","32.6","42.1","30.22","337","5.2","15","0.00","0.00"
"15:14:56","55.4","31.8","40.5","30.23","330","7","15","0.00","0.00"
"15:19:58","55.1","32","41.4","30.23","337","5.5","14","0.00","0.00"
"15:24:56","55.3","32.3","41.6","30.23","311","4.9","11","0.00","0.00"
"15:29:58","55.6","31.7","40.2","30.23","327","6.1","14","0.00","0.00"
"15:34:56","55.3","31.6","40.4","30.21","334","5.2","11.5","0.00","0.00"
"15:39:59","55.5","32.7","41.9","30.21","330","4.7","18","0.00","0.00"
"15:44:57","55.6","32","40.7","30.22","351","5.5","18.4","0.00","0.00"
"15:49:59","55","31","39.7","30.22","344","7","13","0.00","0.00"
"15:54:57","55","31.1","40.1","30.22","326","4.8","12","0.00","0.00"
"15:59:59","55.1","32.2","41.7","30.22","355","3.1","12","0.00","0.00"
"16:04:56","55.3","30.9","39.2","30.22","313","5.9","14","0.00","0.00"
"16:09:58","55.2","30.4","38.6","30.22","316","3.9","9.2","0.00","0.00"
"16:14:57","55.5","30.9","39","30.23","327","5","12","0.00","0.00"
"16:19:59","55.8","30.3","37.7","30.23","332","6","16","0.00","0.00"
"16:24:57","55.5","30","37.7","30.23","345","6.2","17.3","0.00","0.00"
"16:29:56","55.3","30.1","38","30.23","327","4.5","11.5","0.00","0.00"
"16:34:58","55.3","29.7","37.4","30.23","341","6.2","14","0.00","0.00"
"16:39:56","55.5","29.9","37.5","30.23","349","6","12","0.00","0.00"
"16:44:58","55.6","31.1","39.2","30.23","322","3.5","13","0.00","0.00"
"16:49:56","55.9","30.2","37.4","30.23","331","3.4","11.5","0.00","0.00"
"16:54:58","55.7","31.1","39","30.23","330","2.6","6.9","0.00","0.00"
"16:59:56","55.5","31.6","40.2","30.23","65","1.8","5.8","0.00","0.00"
"17:04:57","55.7","30.9","38.8","30.23","297","3.2","9","0.00","0.00"
"17:09:58","55.7","29.6","36.8","30.23","339","3.7","10","0.00","0.00"
"17:14:57","55.8","30.5","37.9","30.23","270","2.4","10.4","0.00","0.00"
"17:19:59","55.6","29.7","37","30.23","346","4.3","11.5","0.00","0.00"
"17:24:57","55.7","29.8","37","30.23","0","1.8","7","0.00","0.00"
"17:29:56","55.8","29.3","36.1","30.24","342","3.5","9.2","0.00","0.00"
"17:34:58","56.1","29.3","35.8","30.24","329","3.8","11.5","0.00","0.00"
"17:39:57","56","28.8","35.1","30.24","347","3.7","14","0.00","0.00"
"17:44:59","55.7","28.1","34.5","30.24","344","6.4","16","0.00","0.00"
"17:49:57","55.6","29.1","36.1","30.24","357","1.8","10.4","0.00","0.00"
"17:54:56","55.7","29.7","36.8","30.24","1","1.9","7","0.00","0.00"
"17:59:58","55.2","28.5","35.7","30.24","338","4.2","11.5","0.00","0.00"
"18:04:59","54.9","28.4","36","30.24","324","1.9","9.2","0.00","0.00"
"18:09:57","54.9","28","35.5","30.24","351","2.8","11.5","0.00","0.00"
"18:14:56","54.7","27.6","35.2","30.24","20","2.5","11","0.00","0.00"
"18:19:58","54.5","27.7","35.5","30.24","36","1.6","6","0.00","0.00"
"18:24:56","54.2","27.7","35.8","30.24","337","2.1","6","0.00","0.00"
"18:29:58","54.1","27.8","36.1","30.24","339","2.6","5","0.00","0.00"
"18:34:56","53.9","27.9","36.5","30.24","345","2","5","0.00","0.00"
"18:39:59","53.8","28.1","37","30.24","348","2.6","7","0.00","0.00"
"18:44:56","53.6","27.7","36.7","30.24","299","1.8","6","0.00","0.00"
"18:49:58","53.4","27.6","36.8","30.24","5","2.5","6","0.00","0.00"
"18:54:56","53","27.4","37.1","30.24","10","2.5","8.1","0.00","0.00"
"18:59:58","52.4","27.4","37.8","30.25","346","2.1","5","0.00","0.00"
"19:04:59","52","27.7","38.9","30.25","0","1.6","5","0.00","0.00"
"19:09:57","51.7","27.7","39.4","30.25","3","1.2","7","0.00","0.00"
"19:14:56","51.3","27","38.8","30.25","26","1.4","6.9","0.00","0.00"
"19:19:58","51","26.8","38.8","30.25","355","1.7","8.1","0.00","0.00"
"19:24:57","50.8","26.9","39.3","30.25","36","1.1","4","0.00","0.00"
"19:29:56","50.5","26.7","39.5","30.26","32","1","3.5","0.00","0.00"
"19:34:59","50.3","26.7","39.8","30.26","357","1.1","4","0.00","0.00"
"19:39:58","50","26.3","39.5","30.26","331","1.5","4","0.00","0.00"
"19:44:57","49.8","26.8","40.7","30.26","346","1.2","4","0.00","0.00"
"19:49:59","49.5","26.7","41","30.26","331","0.7","2.3","0.00","0.00"
"19:54:58","49.1","26.4","41","30.26","356","1.2","4","0.00","0.00"
"19:59:57","49","26.4","41.2","30.27","343","0.9","2.3","0.00","0.00"
"20:04:58","48.8","26.4","41.5","30.27","343","0.2","2.3","0.00","0.00"
"20:09:56","48.7","26.6","42.1","30.27","343","0.2","2","0.00","0.00"
"20:14:59","48.4","26.7","42.7","30.27","343","0.2","2.3","0.00","0.00"
"20:19:58","48.1","26.7","43.1","30.26","343","0.1","1.2","0.00","0.00"
"20:24:57","47.9","26.9","43.8","30.26","343","0.2","1.2","0.00","0.00"
"20:29:59","47.5","27.5","45.7","30.28","343","0","1.2","0.00","0.00"
"20:34:58","47.1","27.1","45.5","30.28","343","0","1.2","0.00","0.00"
"20:39:57","46.8","26.2","44.5","30.28","343","0","0","0.00","0.00"
"20:44:59","46.6","26.5","45.3","30.28","343","0","0","0.00","0.00"
"20:49:58","46.3","26.8","46.3","30.28","343","0","1.2","0.00","0.00"
"20:54:57","46.1","26.6","46.4","30.28","343","0.5","2.3","0.00","0.00"
"20:59:56","45.8","26.4","46.4","30.29","343","0.2","1.2","0.00","0.00"
"21:04:57","45.6","26.5","47","30.29","343","0.2","2.3","0.00","0.00"
"21:09:59","45.5","26.8","47.9","30.29","343","0","0","0.00","0.00"
"21:14:59","45.2","27.6","50","30.29","343","0.5","2.3","0.00","0.00"
"21:19:57","45","27.5","50","30.29","343","0","1.2","0.00","0.00"
"21:24:56","44.8","27","49.5","30.29","343","0","0","0.00","0.00"
"21:29:58","44.5","27.3","50.5","30.30","339","0.4","3.5","0.00","0.00"
"21:34:57","44.5","26.9","49.8","30.30","346","0.7","3.5","0.00","0.00"
"21:39:56","44.5","26.6","49.2","30.30","350","0.5","2.3","0.00","0.00"
"21:44:58","44.6","26.6","49","30.30","350","0.7","2.3","0.00","0.00"
"21:49:57","44.6","26.6","49","30.30","319","0.3","2","0.00","0.00"
"21:54:59","44.6","26.1","48","30.30","290","0.7","3.5","0.00","0.00"
"21:59:58","44.6","26.1","48.1","30.30","19","0.2","2.3","0.00","0.00"
"22:04:59","44.5","26.5","49","30.30","18","0.7","3.5","0.00","0.00"
"22:09:57","44.3","26","48.4","30.30","19","0.4","2.3","0.00","0.00"
"22:14:56","44.3","25.6","47.7","30.31","20","0.5","2.3","0.00","0.00"
"22:19:58","44.4","25.5","47.2","30.31","46","0.4","2.3","0.00","0.00"
"22:24:57","44.5","25.6","47.2","30.31","49","0.1","2.3","0.00","0.00"
"22:29:56","44.4","25.4","47","30.31","49","0.2","1.2","0.00","0.00"
"22:34:58","44.3","25.4","47.2","30.31","48","0.1","2","0.00","0.00"
"22:39:57","44.1","25.1","47","30.31","48","0.1","2.3","0.00","0.00"
"22:44:56","43.9","25.5","48.1","30.31","48","0","1.2","0.00","0.00"
"22:49:59","43.6","26.1","49.9","30.31","48","0.1","1.2","0.00","0.00"
"22:54:58","43.3","25.4","49","30.31","48","0","0","0.00","0.00"
"22:59:56","43","26.4","51.9","30.32","48","0","0","0.00","0.00"
"23:04:58","42.5","26.7","53.2","30.32","48","0.2","2.3","0.00","0.00"
"23:09:59","42.2","25.5","51.4","30.32","52","0.6","4","0.00","0.00"
"23:14:59","42.2","25.3","51","30.33","43","0.6","3","0.00","0.00"
"23:19:57","42.4","25.3","50.5","30.33","76","1","4","0.00","0.00"
"23:24:56","42.7","25.5","50.4","30.33","73","0.6","3","0.00","0.00"
"23:29:58","43","25.4","49.7","30.33","75","1.3","4","0.00","0.00"
"23:34:57","43.3","25.3","48.9","30.33","83","1.4","3.5","0.00","0.00"
"23:39:56","43.6","25.2","48","30.33","74","1.9","6","0.00","0.00"
"23:44:58","43.8","24.9","46.9","30.33","61","2.3","6","0.00","0.00"
"23:49:57","44.1","24.8","46.4","30.33","65","1.7","4","0.00","0.00"
"23:54:59","44","24.8","46.6","30.33","58","1.8","5","0.00","0.00"
"23:59:57","44","24.8","46.6","30.33","66","1.8","5","0.00","0.00"
